[[{"header":{"parameterUnit":"m.s-1","parameterCategory":1,"la1":30.2991,"la2":30.254,"lo1":-89.0895,"lo2":-89.0444,"dy":0.0017,"dx":0.0017,"nx":28,"ny":28,"refTime":"2023-10-10T09:00:00:Z","depth":0,"parameterNumber":2,"parameterNumberName":"U-component_of_WINDS"},"data":[0,0,0,0,0,0,0,0,0,0,0,0,0,0,0,0,0,0,0,0,0,0,0,0,0,0,0,0,0,0,0,0,0,0,0,0,0,0,0,0,0,0,0,0,0,0,0,0,0,0,0,0,0,0,0,0,0,0,-4.4314,-4.4314,0,-4.4289,-4.4289,-4.4289,-4.4065,-4.406,-4.4054,-4.4049,-4.4033,-4.4037,-4.4042,0,0,0,0,0,0,0,0,0,0,0,0,0,-4.4177,-4.4181,-4.4314,-4.4314,-4.4313,-4.429,-4.4289,-4.4289,-4.4066,-4.4059,-4.4053,-4.4046,-4.4031,-4.4037,-4.4043,0,0,0,0,0,0,0,0,0,0,0,0,0,-4.4203,-4.4182,-4.4314,-4.4199,-4.4188,-4.429,-4.4289,-4.4289,-4.4068,-4.4059,-4.4051,-4.4043,-4.4029,-4.4036,-4.4043,-4.4255,0,0,-4.4065,-4.4068,0,0,0,0,0,0,0,0,-4.4202,-4.4209,-4.4216,-4.4207,-4.4196,-4.4172,-4.4235,-4.4278,-4.407,-4.4114,-4.4049,-4.4039,-4.4086,-4.4088,-4.4102,-4.4255,-4.4254,-4.4066,-4.407,-4.4073,-4.4075,0,0,0,0,0,0,0,-4.4201,-4.4209,-4.4304,-4.4217,-4.4204,-4.4152,-4.4146,-4.4242,-4.4148,-4.4109,-4.4093,-4.4093,-4.4079,-4.4096,-4.41,-4.4254,-4.4066,-4.4072,-4.4077,-4.4079,-4.4583,-4.4592,0,0,0,0,0,0,-4.4214,-4.4208,-4.4305,-4.4304,-4.4178,-4.4161,-4.4155,-4.4188,-4.4146,-4.4131,-4.41,-4.4082,-4.4088,-4.4092,-4.4099,-4.4348,-4.4073,-4.408,-4.4084,-4.4574,-4.4585,-4.4595,0,0,0,0,0,0,-4.4211,-4.4224,-4.4306,-4.4252,-4.4258,-4.4172,-4.4211,-4.4192,-4.4208,-4.4139,-4.4122,-4.4134,-4.4082,-4.4089,-4.4219,-4.4344,-4.4083,-4.409,-4.4564,-4.4578,-4.459,-4.4846,0,0,0,0,0,0,-4.4208,-4.4225,-4.4302,-4.4255,-4.4262,-4.4424,-4.4219,-4.4197,-4.422,-4.4197,-4.4166,-4.4153,-4.4075,-4.4209,-4.4226,-4.4349,-4.4095,-4.4552,-4.457,-4.4586,-4.4826,-4.4867,-4.4901,0,0,0,0,0,-4.4204,-4.4376,-4.4307,-4.432,-4.4356,-4.4432,-4.4436,-4.434,-4.4231,-4.431,-4.4266,-4.4154,-4.4327,-4.4224,-4.4241,-4.4369,-4.4544,-4.4565,-4.4585,-4.4809,-4.4859,-4.49,0,0,0,0,0,0,-4.4443,-4.4368,-4.4291,-4.4451,-4.4449,-4.4394,-4.449,-4.4395,-4.4426,-4.4404,-4.4287,-4.4282,-4.4431,-4.4411,-4.4299,-4.4574,-4.4416,-4.4441,-4.4581,-4.4628,-4.4665,-4.4668,-4.4101,0,0,0,0,0,-4.4513,-4.4578,-4.451,-4.4659,-4.4661,-4.4577,-4.4606,-4.4532,-4.4527,-4.4526,-4.449,-4.4492,-4.4547,-4.4585,-4.4631,-4.4821,-4.4814,-4.4917,-4.4955,-4.4986,-4.5011,-4.5114,-4.5161,-4.4662,-4.4662,-4.4662,0,0,-4.4661,-4.4628,-4.4677,-4.4706,-4.4695,-4.4769,-4.4577,-4.4662,-4.4717,-4.4539,-4.466,-4.4635,-4.4629,-4.4791,-4.486,-4.478,-4.5146,-4.5012,-4.5038,-4.5045,-4.514,-4.5187,-4.523,-4.4676,-4.4674,-4.4672,0,0,-4.4969,-4.4949,-4.5072,-4.5066,-4.5052,-4.4995,-4.5025,-4.4984,-4.496,-4.5078,-4.4948,-4.5012,-4.5108,-4.511,-4.5124,-4.5435,-4.5336,-4.5454,-4.5652,-4.5754,-4.5794,-4.5828,-4.5944,-4.5986,-4.5477,-4.5478,-4.5478,0,-4.5156,-4.5257,-4.5148,-4.5242,-4.5261,-4.5101,-4.5228,-4.5228,-4.5232,-4.5251,-4.5159,-4.5278,-4.5262,-4.5424,-4.5501,-4.5515,-4.555,-4.5458,-4.5796,-4.583,-4.586,-4.5969,-4.6013,-4.5492,-4.5491,-4.5489,-4.5488,0,-4.549,-4.5563,-4.5665,-4.5671,-4.5701,-4.5811,-4.5722,-4.5766,-4.5691,-4.5645,-4.577,-4.5746,-4.5786,-4.5818,-4.5746,-4.5972,-4.5923,-4.5816,-4.5656,-4.5924,-4.6025,-4.6066,-4.5514,-4.5508,-4.5504,-4.55,0,0,-4.5948,-4.5893,-4.5933,-4.5935,-4.5909,-4.5965,-4.607,-4.6107,-4.6149,-4.6157,-4.6246,-4.6331,-4.6232,-4.6248,-4.6175,-4.6264,-4.6518,-4.6146,-4.6144,-4.622,-4.6772,-4.6856,-4.6906,-4.645,-4.6458,-4.6464,-4.6774,0,-4.6248,-4.6421,-4.6327,-4.6515,-4.6584,-4.6434,-4.6526,-4.6522,-4.6483,-4.6538,-4.6494,-4.6558,-4.642,-4.643,-4.6511,-4.647,-4.6628,-4.6446,-4.6536,-4.6541,-4.6546,-4.6957,-4.7045,-4.7339,-4.6812,-4.6818,-4.6823,0,-4.662,-4.6644,-4.6839,-4.6802,-4.6828,-4.6912,-4.694,-4.6993,-4.6988,-4.6952,-4.6972,-4.6878,-4.6982,-4.6821,-4.6966,-4.6844,-4.6875,-4.6861,-4.687,-4.6879,-4.6701,-4.6981,-4.743,-4.7477,-4.6883,-4.6878,-4.6874,0,-4.6941,-4.7021,-4.7148,-4.7154,-4.7114,-4.7178,-4.7165,-4.715,-4.718,-4.7205,-4.7224,-4.7263,-4.7285,-4.7319,-4.724,-4.7129,-4.7398,-4.7228,-4.7375,-4.7378,-4.7442,-4.744,-4.7907,-4.7456,-4.7455,-4.7454,-4.7453,0,-4.7288,-4.7414,-4.7292,-4.7372,-4.751,-4.7402,-4.7543,-4.7514,-4.7503,-4.7577,-4.7449,-4.7522,-4.741,-4.7473,-4.7411,-4.7544,-4.7553,-4.7532,-4.7515,-4.7546,-4.7549,-4.7567,-4.7547,-4.7465,-4.7463,-4.7461,-4.7459,0,-4.7671,-4.7593,-4.7724,-4.7675,-4.7666,-4.7771,-4.7731,-4.7804,-4.7755,-4.7851,-4.7867,-4.7792,-4.7859,-4.7782,-4.7844,-4.7802,-4.7983,-4.7933,-4.7985,-4.7973,-4.8126,-4.8115,-4.8625,-4.8688,-4.8192,-4.8197,-4.8201,0,-4.7899,-4.7993,-4.7955,-4.7994,-4.7988,-4.8052,-4.8082,-4.798,-4.8016,-4.8018,-4.8093,-4.8149,-4.8189,-4.8305,-4.8258,-4.8306,-4.8259,-4.8435,-4.8266,-4.8296,-4.8268,-4.8265,-4.8276,-4.8471,-4.8477,-4.8482,-4.8486,0,-4.8315,-4.8272,-4.8318,-4.8353,-4.8391,-4.8414,-4.8426,-4.8467,-4.8361,-4.8409,-4.8475,-4.8506,-4.8569,-4.8629,-4.8663,-4.8653,-4.8555,-4.8538,-4.8576,-4.8611,-4.8639,-4.8631,-4.8084,-4.8528,-4.8524,-4.8521,-4.8519,-4.8517,-4.863,-4.8708,-4.8694,-4.8751,-4.875,-4.8765,-4.8833,-4.8792,-4.8845,-4.8887,-4.8824,-4.8909,-4.8904,-4.8939,-4.8941,-4.9008,-4.8934,-4.8987,-4.9001,-4.9017,-4.9042,-4.8625,-4.9013,-4.9012,-4.9011,-4.901,-4.9009,0,-4.9043,-4.9027,-4.908,-4.9102,-4.9148,-4.9047,-4.9057,-4.9103,-4.9179,-4.9181,-4.9223,-4.9302,-4.9359,-4.9317,-4.9366,-4.9429,-4.9385,-4.9446,-4.9442,-4.9443,-4.9103,-4.9068,-4.948,-4.948,-4.948,-4.948,-4.948,-4.948,-4.9264,-4.9392,-4.9348,-4.9476,-4.9458,-4.9539,-4.9554,-4.957,-4.9571,-4.9665,-4.9711,-4.9682,-4.9668,-4.9715,-4.9765,-4.9751,-4.9778,-4.9856,-4.9827,-4.9512,-4.9466,-4.9422,-4.9389,-4.9861,-4.9862,-5.0161,-5.0164,-5.0166]},{"header":{"parameterUnit":"m.s-1","parameterCategory":1,"la1":30.2991,"la2":30.254,"lo1":-89.0895,"lo2":-89.0444,"dy":0.0017,"dx":0.0017,"nx":28,"ny":28,"refTime":"2023-10-10T09:00:00:Z","depth":0,"parameterNumber":3,"parameterNumberName":"V-component_of_WINDS"},"data":[0,0,0,0,0,0,0,0,0,0,0,0,0,0,0,0,0,0,0,0,0,0,0,0,0,0,0,0,0,0,0,0,0,0,0,0,0,0,0,0,0,0,0,0,0,0,0,0,0,0,0,0,0,0,0,0,0,0,-4.6688,-4.6686,0,-4.6443,-4.644,-4.6437,-4.6349,-4.635,-4.635,-4.6351,-4.6082,-4.6075,-4.6067,0,0,0,0,0,0,0,0,0,0,0,0,0,-4.7064,-4.7058,-4.6688,-4.6685,-4.6682,-4.6443,-4.644,-4.6436,-4.6348,-4.635,-4.6351,-4.6352,-4.6085,-4.6076,-4.6066,0,0,0,0,0,0,0,0,0,0,0,0,0,-4.6868,-4.7056,-4.6689,-4.661,-4.6601,-4.6444,-4.644,-4.6435,-4.6348,-4.635,-4.6351,-4.6352,-4.6088,-4.6077,-4.6065,-4.5963,0,0,-4.6028,-4.6023,0,0,0,0,0,0,0,0,-4.6879,-4.6854,-4.6625,-4.6615,-4.6604,-4.6428,-4.6474,-4.6277,-4.6348,-4.6443,-4.6351,-4.6353,-4.6195,-4.6175,-4.6125,-4.5951,-4.5939,-4.6027,-4.602,-4.6015,-4.6011,0,0,0,0,0,0,0,-4.6893,-4.6864,-4.6591,-4.6621,-4.6609,-4.6581,-4.6555,-4.6436,-4.6314,-4.6435,-4.6428,-4.6401,-4.619,-4.6137,-4.6118,-4.5935,-4.6027,-4.6017,-4.6009,-4.6005,-4.5662,-4.566,0,0,0,0,0,0,-4.6922,-4.6876,-4.6598,-4.6583,-4.6748,-4.6573,-4.6544,-4.6483,-4.6315,-4.6291,-4.6401,-4.6398,-4.6157,-4.6132,-4.6108,-4.5976,-4.6015,-4.6003,-4.5996,-4.5664,-4.5662,-4.5659,0,0,0,0,0,0,-4.693,-4.6898,-4.6608,-4.6728,-4.6689,-4.6566,-4.6498,-4.6477,-4.6424,-4.6289,-4.6265,-4.637,-4.6157,-4.6125,-4.6001,-4.5965,-4.5998,-4.5987,-4.5666,-4.5663,-4.566,-4.5713,0,0,0,0,0,0,-4.6941,-4.6902,-4.6866,-4.6728,-4.6683,-4.651,-4.6496,-4.6472,-4.6406,-4.6401,-4.6254,-4.6231,-4.6155,-4.6019,-4.5989,-4.5949,-4.5978,-4.5668,-4.5665,-4.5661,-4.5713,-4.5712,-4.5711,0,0,0,0,0,-4.6955,-4.6887,-4.6864,-4.6831,-4.6636,-4.6508,-4.6482,-4.6401,-4.6404,-4.6364,-4.6277,-4.6235,-4.5976,-4.6007,-4.5972,-4.5929,-4.567,-4.5666,-4.5662,-4.5714,-4.5712,-4.5711,0,0,0,0,0,0,-4.7017,-4.6867,-4.6841,-4.6727,-4.6632,-4.6494,-4.6441,-4.6402,-4.63,-4.6299,-4.6198,-4.6165,-4.6048,-4.5976,-4.6014,-4.582,-4.582,-4.5808,-4.5871,-4.5869,-4.5867,-4.5885,-4.5968,0,0,0,0,0,-4.702,-4.6934,-4.6805,-4.6716,-4.6671,-4.6565,-4.6506,-4.6453,-4.6347,-4.6305,-4.6209,-4.6104,-4.5998,-4.5929,-4.5825,-4.5704,-4.5668,-4.5657,-4.5655,-4.5655,-4.5645,-4.5572,-4.5564,-4.5645,-4.5645,-4.5646,0,0,-4.7019,-4.6927,-4.6877,-4.6727,-4.6647,-4.6554,-4.6531,-4.6435,-4.6363,-4.6288,-4.6166,-4.6092,-4.5967,-4.5844,-4.5784,-4.578,-4.5615,-4.565,-4.565,-4.564,-4.5567,-4.5559,-4.5552,-4.5643,-4.5643,-4.5644,0,0,-4.6972,-4.6896,-4.6813,-4.6735,-4.6616,-4.6547,-4.6527,-4.6395,-4.6345,-4.6222,-4.6163,-4.6074,-4.5895,-4.5808,-4.5741,-4.5662,-4.5619,-4.5631,-4.5622,-4.5552,-4.5546,-4.5539,-4.5507,-4.5498,-4.5622,-4.5622,-4.5622,0,-4.6985,-4.685,-4.6774,-4.6682,-4.6615,-4.6549,-4.6461,-4.6387,-4.6238,-4.619,-4.619,-4.5964,-4.5875,-4.5729,-4.5711,-4.5659,-4.5629,-4.5645,-4.5554,-4.5547,-4.554,-4.5508,-4.5497,-4.5624,-4.5624,-4.5624,-4.5623,0,-4.6871,-4.6778,-4.6724,-4.6588,-4.6516,-4.6426,-4.6331,-4.6265,-4.6219,-4.6147,-4.6021,-4.5913,-4.5785,-4.5747,-4.5698,-4.5592,-4.5593,-4.5575,-4.5571,-4.5535,-4.5504,-4.5491,-4.5627,-4.5626,-4.5625,-4.5625,0,0,-4.6853,-4.6679,-4.666,-4.6597,-4.6462,-4.6385,-4.6291,-4.6171,-4.6115,-4.6015,-4.5929,-4.578,-4.5762,-4.5686,-4.5626,-4.5566,-4.5507,-4.5554,-4.5549,-4.5545,-4.5379,-4.5392,-4.5379,-4.5479,-4.5477,-4.5475,-4.5388,0,-4.6785,-4.662,-4.6549,-4.6413,-4.6323,-4.626,-4.6177,-4.6082,-4.6013,-4.5923,-4.5844,-4.5739,-4.5725,-4.5678,-4.5616,-4.5528,-4.5471,-4.5533,-4.5392,-4.5388,-4.5422,-4.5363,-4.5376,-4.53,-4.5376,-4.5374,-4.5372,0,-4.6684,-4.6589,-4.6447,-4.6323,-4.6282,-4.621,-4.6093,-4.601,-4.5899,-4.5852,-4.5769,-4.5713,-4.5605,-4.5613,-4.546,-4.5504,-4.5442,-4.539,-4.5385,-4.5365,-4.5375,-4.5338,-4.5274,-4.5261,-4.5353,-4.5354,-4.5356,0,-4.6681,-4.6518,-4.6411,-4.6359,-4.6212,-4.6162,-4.6097,-4.5989,-4.5921,-4.5818,-4.5771,-4.5655,-4.559,-4.5499,-4.5411,-4.5426,-4.5265,-4.5266,-4.5218,-4.522,-4.5184,-4.5186,-4.5105,-4.5151,-4.5152,-4.5152,-4.5152,0,-4.6611,-4.6525,-4.6408,-4.6341,-4.6242,-4.6159,-4.6061,-4.599,-4.5895,-4.5809,-4.5747,-4.5666,-4.5558,-4.5462,-4.5393,-4.5274,-4.5246,-4.5201,-4.5183,-4.5204,-4.521,-4.5159,-4.516,-4.5149,-4.5149,-4.515,-4.5151,0,-4.6589,-4.6508,-4.6387,-4.626,-4.6226,-4.6157,-4.6045,-4.5975,-4.5905,-4.5797,-4.5767,-4.5653,-4.5538,-4.5443,-4.529,-4.5243,-4.5118,-4.5099,-4.5157,-4.5147,-4.5103,-4.5107,-4.4983,-4.496,-4.5026,-4.5026,-4.5026,0,-4.6548,-4.6482,-4.6349,-4.629,-4.6228,-4.6134,-4.6066,-4.5981,-4.5911,-4.5781,-4.5726,-4.5607,-4.5508,-4.5325,-4.5224,-4.5106,-4.5081,-4.5046,-4.5062,-4.5086,-4.5075,-4.5079,-4.5069,-4.5043,-4.5043,-4.5042,-4.5042,0,-4.6483,-4.6446,-4.6354,-4.6248,-4.617,-4.608,-4.5988,-4.5942,-4.5839,-4.5763,-4.5648,-4.5571,-4.5417,-4.5298,-4.517,-4.5096,-4.5049,-4.5039,-4.5021,-4.504,-4.5075,-4.5051,-4.5149,-4.5041,-4.5041,-4.5041,-4.5041,-4.5041,-4.6447,-4.6384,-4.6281,-4.6179,-4.6103,-4.6019,-4.5947,-4.587,-4.5774,-4.5646,-4.5601,-4.5481,-4.5368,-4.5192,-4.5119,-4.5019,-4.5014,-4.4989,-4.4981,-4.4975,-4.4976,-4.5096,-4.4996,-4.4996,-4.4996,-4.4996,-4.4996,0,-4.6374,-4.6306,-4.6215,-4.6091,-4.601,-4.5982,-4.5878,-4.581,-4.5708,-4.561,-4.5515,-4.538,-4.5265,-4.5158,-4.5035,-4.4976,-4.4951,-4.4946,-4.4947,-4.493,-4.499,-4.5016,-4.4968,-4.4968,-4.4968,-4.4968,-4.4968,-4.4968,-4.6327,-4.6219,-4.617,-4.6021,-4.5951,-4.5839,-4.5782,-4.5701,-4.5623,-4.5478,-4.5384,-4.5318,-4.5214,-4.5084,-4.4975,-4.4945,-4.4901,-4.4901,-4.4865,-4.4922,-4.4926,-4.493,-4.4954,-4.4893,-4.4893,-4.4812,-4.4812,-4.4811]}]]